> >
Can't find the part you're looking for?$ Have Parts for Sale?
<< Prev 30    Showing 17851 - 17880 of 18100    Next 30 >>
0 Part in Cart uploadUpload RFQ
Company
Qty
Location
Last Updated
Kaviation Services
Kaviation Services Logo
Tennessee, USA
Part NumberDescriptionQtyConditionLast Updated
109-0401-22-3STOPPER, CORK4NS2020-09-17
109-0401-21-1BOLT3NS2020-09-17
109-0315-06-1VENT DUCT ASSY, L/H SIDE1NS2020-09-17
109-0310-73-3NOSE BOWL1NS2020-09-17
109-0310-54-2R/H NLG DOOR1NS2020-09-17
109-0310-23-9HYDRAULIC LINE1NS2020-09-17
109-0310-23-10RETAINER STRIP1NS2020-09-17
109-0131-15-7BOLT, TAIL ROTOR BALANCE4NS2020-09-17
109-0131-15-5T/R BOLT8AR2020-09-17
109-0131-12-1RETENTION STRAP-208 HR TO SLL2AR2020-09-17
109-0131-05-117TRUNNION1AR2020-09-17
109-0130-56-1BOOT,DUST & MOISTURE SEAL2NS2020-09-17
109-0130-20-1PC LINK SHORT1NS2020-09-17
109-0130-17-1BEARING BALL DUPLEX2NS2020-09-17
109-0130-13-3CLIP, T/R SLIDER ASSY9NS2020-09-17
109-0130-08-1USED CROSS HEAD PITCH CONTROL1AR2020-09-17
109-0110-95-103SLEEVE14NS2020-09-17
109-0110-94-1WASHER, FLAT1NS2020-09-17
109-0110-69-3SLEEVE5NS2020-09-17
109-0110-69-1SPACER, SLEEVE5NS2020-09-17
109-0110-59-105P/C LINK ASSY4AR2020-09-17
109-0110-57-105MROD END5NS2020-09-17
109-0110-57-105ROD END5NS2020-09-17
109-0110-28-107CLEVIS6NS2020-09-17
109-0104-02-1COVER1NS2020-09-17
109-0104-01-5PIN ASSY, TAPERED, THREADED4NS2020-09-17
109-0101-60-1WASHER1NS2020-09-17
109-0101-51-1PLUG M/R BLADE BOLT2NS2020-09-17
109-0101-34-3BOLT, BLADE ATTACHING1NS2020-09-17
10-825810-195CONNECTOR CONTACT2NS2020-09-17
<< Prev 30    Showing 17851 - 17880 of 18100    Next 30 >>
Pages: 1...586587588589590591592593594595596597598599600601602603604
Apache 2.0